Regional Weather Roundup
Issued by NWS

Home | Current Version | Previous Version | Text Only | Print | Product List | Glossary Off
Versions: 1 2 3 4 5 6 7 8 9 10 11 12 13 14 15 16 17 18 19 20 21 22 23 24 25 26 27 28 29 30 31 32 33 34 35 36 37 38 39 40 41 42 43 44 45 46 47 48 49 50

000
ASUS43 KFSD 190210
RWRSD

WEATHER ROUNDUP FOR SOUTH DAKOTA
NATIONAL WEATHER SERVICE SIOUX FALLS SD
900 PM CDT SAT APR 18 2015

NOTE: "FAIR" INDICATES FEW OR NO CLOUDS BELOW 12,000 FEET WITH NO
SIGNIFICANT WEATHER AND/OR OBSTRUCTIONS TO VISIBILITY.


SDZ001>005-009-010-012>017-190300-
NORTHWEST AND NORTH CENTRAL SOUTH DAKOTA

CITY           SKY/WX    TMP DP  RH WIND       PRES   REMARKS
BUFFALO          N/A     49  43  80 N12       29.90R
FAITH            N/A     45  43  93 NE12      29.91F
MOBRIDGE       CLOUDY    49  44  83 N17       29.86R
$$

SDZ012>016-024>037-041>051-057-063-072>074-190300-
SOUTHWEST AND SOUTH CENTRAL SOUTH DAKOTA

CITY           SKY/WX    TMP DP  RH WIND       PRES   REMARKS
RAPID CTY ARPT LGT RAIN  45  43  93 N12       29.95R FOG
PIERRE         LGT RAIN  50  49  96 NW9       29.85R FOG
CUSTER         LGT RAIN  37  34  89 N10G17    29.96S
ELLSWORTH AFB  HVY RAIN  45  45 100 N15       29.96R
PHILIP         CLOUDY    49  43  80 N13       29.90R
PINE RIDGE     CLOUDY    48  43  82 NW7       29.91S
SPEARFISH      RAIN      43  43 100 W8        30.01R
WINNER         CLOUDY    56  52  86 N9        29.83S FOG
$$

SDZ004>011-016>023-039-040-190300-
NORTHEAST SOUTH DAKOTA

CITY           SKY/WX    TMP DP  RH WIND       PRES   REMARKS
ABERDEEN       LGT RAIN  54  52  93 W7        29.85S FOG
WATERTOWN      CLOUDY    56  54  93 E3        29.84S
BROOKINGS      CLOUDY    55  54  94 E7        29.83S
SISSETON         N/A     59  52  77 S10       29.85R
$$

SDZ017-020-022-023-036>040-048>070-190300-
SOUTHEAST SOUTH DAKOTA

CITY           SKY/WX    TMP DP  RH WIND       PRES   REMARKS
SIOUX FALLS    CLOUDY    57  55  93 E3        29.82R
HURON          CLOUDY    55  54  96 NE6       29.81F FOG
CHAMBERLAIN    CLOUDY    54  53  97 CALM      29.83R
MITCHELL       LGT RAIN  57  56  96 CALM      29.82S FOG
YANKTON        CLOUDY    57  54  88 E5        29.80R
$$

ABBREVIATIONS USED IN REMARKS
   TC - TEMPERATURE IN CELSIUS
  WCI - WIND CHILL INDEX
   HX - HEAT INDEX
  VSB - VISIBILITY




USA.gov is the U.S. government's official web portal to all federal, state and local government web resources and services.